Time,TemperatureF,DewpointF,PressureIn,WindDirection,WindDirectionDegrees,WindSpeedMPH,WindSpeedGustMPH,Humidity,HourlyPrecipIn,Conditions,Clouds,dailyrainin,SoftwareType,DateUTC
2013-01-30 00:00:00,28.5,23.0,29.85,NE,45,6.0,11.0,81,0.00,,,0.00,weatherlink.com 1.10,2013-01-30 06:00:00,
2013-01-30 00:15:00,28.3,23.0,29.81,NW,307,3.0,11.0,81,0.00,,,0.00,weatherlink.com 1.10,2013-01-30 06:15:00,
2013-01-30 00:46:00,28.0,23.0,29.80,North,360,8.0,9.0,80,0.00,,,0.00,weatherlink.com 1.10,2013-01-30 06:46:00,
2013-01-30 01:15:00,27.2,22.0,29.78,NW,319,8.0,12.0,80,0.00,,,0.00,weatherlink.com 1.10,2013-01-30 07:15:00,
2013-01-30 01:30:00,26.8,21.0,29.79,North,360,4.0,13.0,80,0.00,,,0.00,weatherlink.com 1.10,2013-01-30 07:30:00,
2013-01-30 01:46:00,26.5,21.0,29.81,North,5,1.0,13.0,80,0.00,,,0.00,weatherlink.com 1.10,2013-01-30 07:46:00,
2013-01-30 02:00:00,26.0,21.0,29.77,North,9,4.0,13.0,80,0.00,,,0.00,weatherlink.com 1.10,2013-01-30 08:00:00,
2013-01-30 02:15:00,25.6,20.0,29.79,NW,324,7.0,14.0,80,0.00,,,0.00,weatherlink.com 1.10,2013-01-30 08:15:00,
2013-01-30 02:31:00,25.2,20.0,29.81,North,360,6.0,12.0,80,0.00,,,0.00,weatherlink.com 1.10,2013-01-30 08:31:00,
2013-01-30 02:46:00,24.9,20.0,29.81,NNE,13,2.0,15.0,81,0.00,,,0.00,weatherlink.com 1.10,2013-01-30 08:46:00,
2013-01-30 03:01:00,24.7,20.0,29.80,NW,313,1.0,9.0,82,0.00,,,0.00,weatherlink.com 1.10,2013-01-30 09:01:00,
2013-01-30 03:16:00,24.6,20.0,29.80,NNE,19,1.0,10.0,82,0.00,,,0.00,weatherlink.com 1.10,2013-01-30 09:16:00,
2013-01-30 03:31:00,24.5,20.0,29.80,NE,44,3.0,11.0,82,0.00,,,0.00,weatherlink.com 1.10,2013-01-30 09:31:00,
2013-01-30 03:46:00,24.4,20.0,29.80,NNW,338,7.0,11.0,82,0.00,,,0.00,weatherlink.com 1.10,2013-01-30 09:46:00,
2013-01-30 04:01:00,24.2,19.0,29.80,WNW,297,3.0,9.0,82,0.00,,,0.00,weatherlink.com 1.10,2013-01-30 10:01:00,
2013-01-30 04:16:00,24.3,20.0,29.81,NW,315,3.0,13.0,82,0.00,,,0.00,weatherlink.com 1.10,2013-01-30 10:16:00,
2013-01-30 04:31:00,24.3,20.0,29.80,NNE,29,4.0,11.0,82,0.00,,,0.00,weatherlink.com 1.10,2013-01-30 10:31:00,
2013-01-30 04:46:00,24.3,19.0,29.79,NW,319,4.0,11.0,81,0.00,,,0.00,weatherlink.com 1.10,2013-01-30 10:46:00,
2013-01-30 05:01:00,24.3,19.0,29.79,West,265,4.0,16.0,81,0.00,,,0.00,weatherlink.com 1.10,2013-01-30 11:01:00,
2013-01-30 05:16:00,24.3,19.0,29.80,NW,321,3.0,13.0,81,0.00,,,0.00,weatherlink.com 1.10,2013-01-30 11:16:00,
2013-01-30 05:31:00,24.3,20.0,29.81,North,5,0.0,6.0,82,0.00,,,0.00,weatherlink.com 1.10,2013-01-30 11:31:00,
2013-01-30 05:46:00,24.4,20.0,29.81,NNW,342,5.0,10.0,82,0.00,,,0.00,weatherlink.com 1.10,2013-01-30 11:46:00,
2013-01-30 06:01:00,24.2,20.0,29.79,NNW,341,3.0,6.0,83,0.00,,,0.00,weatherlink.com 1.10,2013-01-30 12:01:00,
2013-01-30 06:16:00,23.8,19.0,29.78,WNW,303,3.0,13.0,82,0.00,,,0.00,weatherlink.com 1.10,2013-01-30 12:16:00,
2013-01-30 06:31:00,23.4,18.0,29.78,NNW,339,6.0,10.0,81,0.00,,,0.00,weatherlink.com 1.10,2013-01-30 12:31:00,
2013-01-30 06:46:00,23.1,18.0,29.77,NNE,15,2.0,11.0,82,0.00,,,0.00,weatherlink.com 1.10,2013-01-30 12:46:00,
2013-01-30 07:01:00,22.5,18.0,29.76,NNW,348,7.0,10.0,82,0.00,,,0.00,weatherlink.com 1.10,2013-01-30 13:01:00,
2013-01-30 07:17:00,21.7,17.0,29.77,NW,319,10.0,13.0,81,0.00,,,0.00,weatherlink.com 1.10,2013-01-30 13:17:00,
2013-01-30 07:31:00,21.1,16.0,29.76,North,5,13.0,14.0,81,0.00,,,0.00,weatherlink.com 1.10,2013-01-30 13:31:00,
2013-01-30 07:46:00,20.5,16.0,29.78,NW,309,5.0,11.0,82,0.00,,,0.00,weatherlink.com 1.10,2013-01-30 13:46:00,
2013-01-30 08:01:00,20.4,16.0,29.79,NW,315,2.0,10.0,82,0.00,,,0.00,weatherlink.com 1.10,2013-01-30 14:01:00,
2013-01-30 08:16:00,19.8,15.0,29.79,WNW,294,7.0,12.0,81,0.00,,,0.00,weatherlink.com 1.10,2013-01-30 14:16:00,
2013-01-30 08:31:00,19.2,14.0,29.79,NNW,329,2.0,12.0,80,0.00,,,0.00,weatherlink.com 1.10,2013-01-30 14:31:00,
2013-01-30 08:46:00,18.6,14.0,29.79,North,355,5.0,12.0,81,0.00,,,0.00,weatherlink.com 1.10,2013-01-30 14:46:00,
2013-01-30 09:02:00,17.7,12.0,29.79,NNW,341,6.0,15.0,79,0.00,,,0.00,weatherlink.com 1.10,2013-01-30 15:02:00,
2013-01-30 09:17:00,17.6,12.0,29.79,West,264,8.0,13.0,79,0.00,,,0.00,weatherlink.com 1.10,2013-01-30 15:17:00,
2013-01-30 09:32:00,17.5,12.0,29.80,NNW,345,4.0,11.0,78,0.00,,,0.00,weatherlink.com 1.10,2013-01-30 15:32:00,
2013-01-30 09:47:00,17.3,11.0,29.80,ENE,59,2.0,14.0,77,0.00,,,0.00,weatherlink.com 1.10,2013-01-30 15:47:00,
2013-01-30 10:02:00,17.2,11.0,29.81,NNW,335,7.0,10.0,77,0.00,,,0.00,weatherlink.com 1.10,2013-01-30 16:02:00,
2013-01-30 10:17:00,17.3,11.0,29.81,NNW,328,2.0,11.0,77,0.00,,,0.00,weatherlink.com 1.10,2013-01-30 16:17:00,
2013-01-30 10:32:00,17.3,11.0,29.80,NW,311,1.0,12.0,77,0.00,,,0.00,weatherlink.com 1.10,2013-01-30 16:32:00,
2013-01-30 10:47:00,17.4,11.0,29.80,North,355,5.0,11.0,77,0.00,,,0.00,weatherlink.com 1.10,2013-01-30 16:47:00,
2013-01-30 11:02:00,17.5,11.0,29.80,North,10,5.0,9.0,76,0.00,,,0.00,weatherlink.com 1.10,2013-01-30 17:02:00,
2013-01-30 11:17:00,17.7,11.0,29.80,NW,311,6.0,13.0,76,0.00,,,0.00,weatherlink.com 1.10,2013-01-30 17:17:00,
2013-01-30 11:32:00,17.7,11.0,29.80,WNW,300,3.0,9.0,76,0.00,,,0.00,weatherlink.com 1.10,2013-01-30 17:32:00,
2013-01-30 11:47:00,17.6,11.0,29.80,WNW,284,7.0,11.0,76,0.00,,,0.00,weatherlink.com 1.10,2013-01-30 17:47:00,
2013-01-30 12:02:00,17.2,11.0,29.79,NW,317,2.0,15.0,76,0.00,,,0.00,weatherlink.com 1.10,2013-01-30 18:02:00,
2013-01-30 12:17:00,17.3,11.0,29.79,NNW,332,4.0,10.0,77,0.00,,,0.00,weatherlink.com 1.10,2013-01-30 18:17:00,
2013-01-30 12:32:00,16.9,11.0,29.79,West,268,10.0,13.0,76,0.00,,,0.00,weatherlink.com 1.10,2013-01-30 18:32:00,
2013-01-30 12:47:00,17.1,11.0,29.79,WNW,284,5.0,11.0,76,0.00,,,0.00,weatherlink.com 1.10,2013-01-30 18:47:00,
2013-01-30 13:02:00,16.7,11.0,29.79,NW,326,7.0,12.0,77,0.00,,,0.00,weatherlink.com 1.10,2013-01-30 19:02:00,
2013-01-30 13:17:00,16.6,10.0,29.79,NW,317,6.0,11.0,76,0.00,,,0.00,weatherlink.com 1.10,2013-01-30 19:17:00,
2013-01-30 13:32:00,16.4,10.0,29.79,NNW,338,3.0,12.0,76,0.00,,,0.00,weatherlink.com 1.10,2013-01-30 19:32:00,
2013-01-30 13:47:00,16.6,10.0,29.79,NNW,331,4.0,13.0,75,0.00,,,0.00,weatherlink.com 1.10,2013-01-30 19:47:00,
2013-01-30 14:02:00,16.6,10.0,29.79,NW,313,10.0,15.0,74,0.00,,,0.00,weatherlink.com 1.10,2013-01-30 20:02:00,
2013-01-30 14:17:00,16.4,9.0,29.79,West,270,5.0,16.0,74,0.00,,,0.00,weatherlink.com 1.10,2013-01-30 20:17:00,
2013-01-30 14:32:00,16.2,10.0,29.80,WNW,297,6.0,12.0,75,0.00,,,0.00,weatherlink.com 1.10,2013-01-30 20:32:00,
2013-01-30 14:47:00,15.7,8.0,29.80,NNW,329,3.0,14.0,72,0.00,,,0.00,weatherlink.com 1.10,2013-01-30 20:47:00,
2013-01-30 15:02:00,15.9,9.0,29.80,WNW,298,8.0,13.0,73,0.00,,,0.00,weatherlink.com 1.10,2013-01-30 21:02:00,
2013-01-30 15:17:00,16.1,9.0,29.80,North,11,0.0,13.0,73,0.00,,,0.00,weatherlink.com 1.10,2013-01-30 21:17:00,
2013-01-30 15:32:00,16.2,9.0,29.80,NW,304,5.0,16.0,73,0.00,,,0.00,weatherlink.com 1.10,2013-01-30 21:32:00,
2013-01-30 15:47:00,16.2,9.0,29.81,WNW,300,6.0,15.0,74,0.00,,,0.00,weatherlink.com 1.10,2013-01-30 21:47:00,
2013-01-30 16:02:00,16.4,10.0,29.80,WNW,301,5.0,15.0,75,0.00,,,0.00,weatherlink.com 1.10,2013-01-30 22:02:00,
2013-01-30 16:18:00,16.6,9.0,29.81,NW,311,4.0,20.0,73,0.00,,,0.00,weatherlink.com 1.10,2013-01-30 22:18:00,
2013-01-30 16:32:00,16.7,9.0,29.81,NW,314,10.0,18.0,73,0.00,,,0.00,weatherlink.com 1.10,2013-01-30 22:32:00,
2013-01-30 16:48:00,16.3,9.0,29.82,NNE,21,4.0,15.0,73,0.00,,,0.00,weatherlink.com 1.10,2013-01-30 22:48:00,
2013-01-30 17:02:00,16.1,9.0,29.82,NNW,329,7.0,14.0,73,0.00,,,0.00,weatherlink.com 1.10,2013-01-30 23:02:00,
2013-01-30 17:17:00,15.9,9.0,29.82,West,276,5.0,14.0,73,0.00,,,0.00,weatherlink.com 1.10,2013-01-30 23:17:00,
2013-01-30 17:32:00,15.8,9.0,29.82,NW,314,2.0,12.0,75,0.00,,,0.00,weatherlink.com 1.10,2013-01-30 23:32:00,
2013-01-30 17:47:00,15.7,9.0,29.83,WNW,292,6.0,11.0,76,0.00,,,0.00,weatherlink.com 1.10,2013-01-30 23:47:00,
2013-01-30 18:02:00,15.4,9.0,29.83,WNW,298,3.0,14.0,76,0.00,,,0.00,weatherlink.com 1.10,2013-01-31 00:02:00,
2013-01-30 18:17:00,15.1,9.0,29.83,West,277,3.0,13.0,75,0.00,,,0.00,weatherlink.com 1.10,2013-01-31 00:17:00,
2013-01-30 18:32:00,14.8,8.0,29.84,North,360,3.0,14.0,74,0.00,,,0.00,weatherlink.com 1.10,2013-01-31 00:32:00,
2013-01-30 18:47:00,14.3,7.0,29.84,NW,309,13.0,13.0,74,0.00,,,0.00,weatherlink.com 1.10,2013-01-31 00:47:00,
2013-01-30 19:02:00,14.1,7.0,29.84,NW,326,8.0,11.0,74,0.00,,,0.00,weatherlink.com 1.10,2013-01-31 01:02:00,
2013-01-30 19:17:00,14.0,7.0,29.85,NW,310,6.0,12.0,74,0.00,,,0.00,weatherlink.com 1.10,2013-01-31 01:17:00,
2013-01-30 19:33:00,14.0,7.0,29.85,WNW,292,5.0,10.0,74,0.00,,,0.00,weatherlink.com 1.10,2013-01-31 01:33:00,
2013-01-30 19:48:00,13.8,7.0,29.85,NW,308,2.0,13.0,74,0.00,,,0.00,weatherlink.com 1.10,2013-01-31 01:48:00,
2013-01-30 20:18:00,13.5,7.0,29.85,WNW,295,7.0,11.0,75,0.00,,,0.00,weatherlink.com 1.10,2013-01-31 02:18:00,
2013-01-30 20:33:00,13.3,7.0,29.85,WNW,292,7.0,10.0,76,0.00,,,0.00,weatherlink.com 1.10,2013-01-31 02:33:00,
2013-01-30 20:48:00,13.0,7.0,29.85,WNW,285,2.0,10.0,76,0.00,,,0.00,weatherlink.com 1.10,2013-01-31 02:48:00,
2013-01-30 21:03:00,12.8,7.0,29.86,North,355,0.0,11.0,76,0.00,,,0.00,weatherlink.com 1.10,2013-01-31 03:03:00,
2013-01-30 21:18:00,12.6,6.0,29.86,NW,311,5.0,14.0,76,0.00,,,0.00,weatherlink.com 1.10,2013-01-31 03:18:00,
2013-01-30 21:33:00,12.4,6.0,29.86,North,355,1.0,9.0,76,0.00,,,0.00,weatherlink.com 1.10,2013-01-31 03:33:00,
2013-01-30 21:48:00,12.2,6.0,29.87,NNW,336,2.0,10.0,76,0.00,,,0.00,weatherlink.com 1.10,2013-01-31 03:48:00,
2013-01-30 22:03:00,11.8,5.0,29.88,WNW,288,4.0,14.0,75,0.00,,,0.00,weatherlink.com 1.10,2013-01-31 04:03:00,
2013-01-30 22:18:00,11.7,5.0,29.88,WNW,290,6.0,17.0,75,0.00,,,0.00,weatherlink.com 1.10,2013-01-31 04:18:00,
2013-01-30 22:33:00,11.5,5.0,29.88,NW,317,7.0,13.0,75,0.00,,,0.00,weatherlink.com 1.10,2013-01-31 04:33:00,
2013-01-30 22:48:00,11.3,5.0,29.88,NW,315,2.0,11.0,75,0.00,,,0.00,weatherlink.com 1.10,2013-01-31 04:48:00,
2013-01-30 23:03:00,11.1,5.0,29.88,NNW,338,3.0,11.0,75,0.00,,,0.00,weatherlink.com 1.10,2013-01-31 05:03:00,
2013-01-30 23:18:00,10.9,4.0,29.89,WNW,297,3.0,8.0,75,0.00,,,0.00,weatherlink.com 1.10,2013-01-31 05:18:00,
2013-01-30 23:33:00,10.2,4.0,29.90,West,281,4.0,12.0,75,0.00,,,0.00,weatherlink.com 1.10,2013-01-31 05:33:00,
2013-01-30 23:48:00,9.5,3.0,29.90,NW,304,4.0,14.0,75,0.00,,,0.00,weatherlink.com 1.10,2013-01-31 05:48:00,